Вернуться в каталог

STARLINK-30214

АктивенСвязьVLEO
NORAD 57411·PAYLOAD·🇺🇸 United States

Запущен Jul 20, 2023 с Vandenberg Space Force Base

Loading…

Ближайшие Пролёты (ближайшие 24 часа)

TLE

СвежийSource: CelesTrak SupGP

Эпоха: Sep 14, 2026, 21:05 UTC

1 57411C 23102H   26257.87895833  .00030334  00000+0  10992-2 0  2571
2 57411  43.0021 260.0409 0001815 264.1429 154.0707 15.27549445    15

Отслеживайте STARLINK-30214 в реальном времени с AllMySat

Download on the App Store